Regional Weather Roundup
Issued by NWS

Home | Current Version | Previous Version | Text Only | Print | Product List | Glossary Off
Versions: 1 2 3 4 5 6 7 8 9 10 11 12 13 14 15 16 17 18 19 20 21 22 23 24 25 26 27 28 29 30 31 32 33 34 35 36 37 38 39 40 41 42 43 44 45 46 47 48 49 50

000
ASUS43 KDTX 201110
RWRMI
MICHIGAN HOURLY REGIONAL WEATHER ROUNDUP
NATIONAL WEATHER SERVICE DETROIT/PONTIAC MI
600 AM EST MON NOV 20 2017

NOTE: "FAIR" INDICATES FEW OR NO CLOUDS BELOW 12,000 FEET WITH NO
SIGNIFICANT WEATHER AND/OR OBSTRUCTION TO VISIBILITY.

MIZ047>049-052>055-059>063-066>070-074>076-081>083-201200-
SOUTHEAST LOWER MICHIGAN

CITY           SKY/WX    TMP DP  RH WIND       PRES   REMARKS
ADRIAN         CLEAR     27  21  78 SW8       30.06R WCI  19
ALMA           CLEAR     31  28  90 S8        29.94S WCI  24
ANN ARBOR      CLOUDY    27  23  85 S8        30.02R WCI  19
BAD AXE        CLOUDY    29  24  79 SW6       29.94R WCI  23
CARO           CLOUDY    31  25  79 SW7       29.95R WCI  24
DETROIT CITY   CLOUDY    30  23  75 SW10      30.03R WCI  21
DETROIT        CLOUDY    30  24  78 SW13      30.03R WCI  20
FLINT          PTCLDY    31  25  78 SW10      29.98R WCI  22
GROSSE ILE     CLOUDY    31  25  78 SW8       30.04S WCI  23
HILLSDALE      CLEAR     28  21  74 SW8       30.02S WCI  20
HOWELL         PTCLDY    29  26  86 SW8       29.98S WCI  21

CITY           SKY/WX    TMP DP  RH WIND       PRES   REMARKS
JACKSON        CLEAR     29  21  72 S15       30.01R WCI  18
LAMBERTVILLE   PTCLDY    31  22  71 SW6       30.07S WCI  25
LANSING        CLEAR     30  25  81 SW14      29.98S WCI  19
LAPEER         MOCLDY    31  25  78 SW8       29.97R WCI  23
MASON          CLEAR     31  25  80 SW3       29.99S
MONROE         MOCLDY    31  23  71 SW9       30.05S WCI  23
MT. CLEMENS    CLOUDY    31  25  80 SW10      29.99R WCI  22
PONTIAC        CLOUDY    29  25  85 SW8       29.97S WCI  21
PORT HOPE        N/A     29  21  72 SW5       29.92R WCI  24
PORT HURON     CLOUDY    30  23  74 S6        29.99S WCI  24
TRI CITIES     PTCLDY    31  27  85 SW10      29.94R WCI  22
MIDLAND        FAIR      30  25  81 SW5       29.93R WCI  26
TROY           CLOUDY    32  25  76 S8        30.03R WCI  24
SAGINAW HB     PTCLDY    32  27  80 SW12      29.94S WCI  23
$$
MIZ043>046-050>051-056>058-064>065-071>073-077>080-201200-
SOUTHWEST LOWER MICHIGAN

CITY           SKY/WX    TMP DP  RH WIND       PRES   REMARKS
BATTLE CREEK   CLEAR     28  21  75 SW13      30.00S WCI  17
BENTON HARBOR  CLEAR     30  21  69 S9        30.00F WCI  22
BIG RAPIDS     CLEAR     27  24  87 S3        29.90R
COLDWATER      CLEAR     28  22  79 SW8       30.03S WCI  19
FREMONT        FAIR      34  32  92 SW7       29.91S WCI  28
HOLLAND        CLEAR     31  27  85 S13       29.97R WCI  21
GRAND RAPIDS   CLEAR     30  28  92 S13       29.96R WCI  20
IONIA          FAIR      31  26  83 SW12      29.95S WCI  22
KALAMAZOO      CLEAR     29  20  69 SW12      30.01S WCI  19
LUDINGTON      CLEAR     37  31  77 W6        29.87F WCI  33
MARSHALL       CLEAR     27  21  77 SW8       30.01S WCI  19
MOUNT PLEASANT CLEAR     32  26  78 S5        29.92R WCI  27
MUSKEGON       CLEAR     41  32  70 SW15      29.92F
SOUTH HAVEN    CLEAR     31  24  74 S9        29.99S WCI  23
$$
MIZ016>042-201200-
NORTHERN LOWER MICHIGAN

CITY           SKY/WX    TMP DP  RH WIND       PRES   REMARKS
ALPENA         CLOUDY    30  23  75 SW5       29.87R WCI  25
BEAVER ISLAND  CLEAR     31  21  67 W5        29.84F WCI  26
BELLAIRE       CLOUDY    31  27  83 S3        29.86S
CADILLAC       CLEAR     26  24  91 SW6       29.85S WCI  19
CHARLEVOIX     CLOUDY    37  28  70 W9        29.87S WCI  30
FRANKFORT      CLOUDY    39  30  71 W8        29.85F WCI  33
GAYLORD        CLOUDY    25  20  81 SW5       29.83R WCI  19
GRAYLING       PTCLDY    26  21  82 SW5       29.86R WCI  20
HARBOR SPRINGS CLOUDY    30  22  70 N6        29.84S WCI  24
MANISTEE       CLOUDY    27  24  89 CALM      29.87S
OSCODA         PTCLDY    24  19  80 SW6       29.90S WCI  17
PELLSTON       MOCLDY    21  19  92 CALM      29.85R
ROGERS CITY    CLOUDY    29  23  76 SW3       29.87R
TRAVERSE CITY  PTCLDY    30  24  78 S5        29.85S WCI  25
$$
MIZ007>008-015-201200-
EASTERN UPPER MICHIGAN

CITY           SKY/WX    TMP DP  RH WIND       PRES   REMARKS
KINROSS        CLOUDY    25  20  81 W5        29.83R WCI  19
MACKINAC ISLAN PTCLDY    31  23  70 W7        29.83S WCI  25
NEWBERRY       CLOUDY    22  19  88 SW5       29.82R WCI  16
S. S. MARIE    CLOUDY    28  21  75 NE3       29.82R
MUNISING         N/A     23  17  78 S8        29.82R WCI  14
$$
MIZ004>006-011>014-085-201200-
CENTRAL UPPER MICHIGAN

CITY           SKY/WX    TMP DP  RH WIND       PRES   REMARKS
MANISTIQUE     CLEAR     21  12  67 CALM      29.83S
ESCANABA       MOCLDY    21  18  88 CALM      29.82F
MENOMINEE      CLEAR     26  20  77 SW3       29.84F
SAWYER-GWINN   PTCLDY    18  15  89 S5        29.78F WCI  11
$$
MIZ001>003-009>011-084-201200-
WESTERN UPPER MICHIGAN

CITY           SKY/WX    TMP DP  RH WIND       PRES   REMARKS
IRON MOUNTAIN  CLOUDY    18  13  80 SE3       29.77F
HOUGHTON       PTCLDY    23  20  88 S5        29.74S WCI  17
COPPER HARBOR    N/A     21  17  84 W5        29.78S WCI  15
IRONWOOD       PTCLDY   N/A N/A N/A S9        29.71F
$$

ABBREVIATIONS USED IN REMARKS
   TC - TEMPERATURE IN CELSIUS
  WCI - WIND CHILL INDEX
   HX - HEAT INDEX
  VSB - VISIBILITY





USA.gov is the U.S. government's official web portal to all federal, state and local government web resources and services.